Regional Weather Roundup
Issued by NWS Little Rock, AR

Home | Current Version | Previous Version | Graphics & Text | Print | Product List | Glossary On
Versions: 1 2 3 4 5 6 7 8 9 10 11 12 13 14 15 16 17 18 19 20 21 22 23 24 25 26 27 28 29
000
ASUS44 KLZK 310405
RWRLZK

WEATHER ROUNDUP FOR ARKANSAS
NATIONAL WEATHER SERVICE LITTLE ROCK AR
1100 PM CDT THU OCT 30 2014

NOTE: "FAIR" INDICATES FEW OR NO CLOUDS BELOW 12,000 FEET WITH NO
SIGNIFICANT WEATHER AND/OR OBSTRUCTIONS TO VISIBILITY.

ARZ001-003-010-029-310500-
NORTHWEST ARKANSAS

CITY           SKY/WX    TMP DP  RH WIND       PRES   REMARKS
FAYETTEVILLE   CLEAR     52  39  61 N6        30.13R
FORT SMITH     CLEAR     52  45  77 W7        30.11R
HARRISON       CLEAR     54  40  59 NW8       30.09R
BENTONVILLE    CLEAR     55  37  50 N7        30.13R
ROGERS         CLEAR     56  39  53 N9        30.14R
SILOAM SPGS    CLEAR     52  36  54 N7        30.15R
HIGHFILL       CLEAR     53  39  59 N9        30.13R
$$

ARZ004-005-016-310500-
NORTH CENTRAL ARKANSAS

CITY           SKY/WX    TMP DP  RH WIND       PRES   REMARKS
BATESVILLE     CLEAR     54  46  76 NW6       30.02S
FLIPPIN        CLEAR     57  37  47 NW5       30.06S
MTN HOME       CLEAR     51  43  74 NW5       30.05R
$$

ARZ040-041-310500-
WEST CENTRAL ARKANSAS

CITY           SKY/WX    TMP DP  RH WIND       PRES   REMARKS
MENA           CLEAR     61  45  55 CALM      30.12R
MOUNT IDA      CLEAR     50  48  93 CALM      30.07R
$$

ARZ009-017-025-026-028-310500-
NORTHEAST ARKANSAS

CITY           SKY/WX    TMP DP  RH WIND       PRES   REMARKS
CORNING        FAIR      50  48  93 N7        30.02R
JONESBORO      CLEAR     56  49  77 NE5       30.00R
NEWPORT        CLEAR     55  48  77 SW8       30.01S
WALNUT RIDGE   CLEAR     52  45  76 NW6       30.00S
BLYTHEVILLE    MOCLDY    56  50  80 SE7       30.00F
$$

ARZ022-023-033-042-044-310500-
CENTRAL ARKANSAS

CITY           SKY/WX    TMP DP  RH WIND       PRES   REMARKS
LITTLE ROCK    PTCLDY    55  48  77 W8        30.05R
N LITTLE ROCK  PTCLDY    58  50  72 W5        30.05R
JACKSONVILLE   CLEAR     50  47  88 W1        30.04R
SEARCY         CLEAR     49  48  97 CALM      30.04S
HOT SPRINGS    CLEAR     52  48  86 NW3       30.08R
RUSSELLVILLE   CLEAR     50  48  93 CALM      30.07R
$$

ARZ036-310500-
EAST ARKANSAS

CITY           SKY/WX    TMP DP  RH WIND       PRES   REMARKS
WEST MEMPHIS   MOCLDY    59  49  69 SW6       30.00S
$$

ARZ050-053-066-070-073-310500-
SOUTHWEST ARKANSAS

CITY           SKY/WX    TMP DP  RH WIND       PRES   REMARKS
ARKADELPHIA    FAIR      51  51 100 CALM      30.08R
CAMDEN         CLEAR     50  48  93 CALM      30.07S FOG
TEXARKANA      CLEAR     56  47  71 SW5       30.09R
DE QUEEN       FOG       49  48  97 CALM      30.09R VSB 3/4
$$

ARZ056-057-069-310500-
SOUTHEAST ARKANSAS

CITY           SKY/WX    TMP DP  RH WIND       PRES   REMARKS
PINE BLUFF     MOCLDY    57  49  74 SW6       30.05S
STUTTGART      CLEAR     55  48  76 SW8       30.03S
MONTICELLO     CLEAR     58  49  72 W6        30.05S

$$





USA.gov is the U.S. government's official web portal to all federal, state and local government web resources and services.